Temperature
5 5 5 6 6 6 6 7 7 7 7 7 7 7 7 7 7 7 7 7 7 8 7 7 8 8 8 8 8 8 8 8 8 8 8 9 9 9 9 9 9 9 9
5 5 5 5 5 6 6 6 6 6 6 7 7 7 7 7 7 7 7 7 7 7 7 7 7 7 7 7 7 7 7 7 7 8 8 8 8 9 9 9 9 8 9
4 5 5 5 5 5 5 5 6 6 6 6 6 6 6 6 6 6 6 6 6 6 6 6 6 6 6 7 7 7 7 7 7 7 7 8 8 8 8 8 8 8 8
4 4 4 4 4 5 5 5 5 5 6 6 6 6 6 6 6 6 6 6 6 6 6 6 6 6 6 6 6 6 6 6 6 7 7 7 7 7 7 7 7 7 7
4 4 4 4 4 4 4 4 5 5 5 5 5 5 5 5 5 5 5 5 5 5 5 5 5 5 5 5 5 6 6 6 6 6 6 6 6 6 6 6 6 6 6
3 3 3 3 4 4 4 4 4 4 4 4 4 4 4 4 4 4 5 5 5 5 5 5 5 5 5 5 5 5 5 5 5 5 5 5 6 6 6 6 5 5 5
3 3 3 3 3 3 3 4 4 3 3 4 4 4 4 4 4 4 4 4 4 4 4 4 4 4 4 4 4 4 5 5 5 5 5 5 5 5 5 5 5 5 5
2 2 2 2 2 3 3 3 3 3 3 3 3 3 3 3 3 3 3 3 3 3 4 4 4 4 4 3 4 4 4 4 4 4 4 4 5 5 5 5 5 5 5
2 2 2 2 2 2 2 2 2 2 3 3 3 3 3 3 2 2 2 3 3 3 3 3 3 3 3 3 3 3 4 4 4 4 4 4 4 4 4 4 4 4 4
2 2 2 2 2 2 2 1 2 1 2 2 2 2 2 2 2 2 2 2 2 2 2 3 3 3 3 3 3 3 3 3 3 3 3 4 4 4 4 4 4 4 4
1 1 1 1 1 1 1 1 1 1 1 1 1 1 1 1 1 1 1 1 1 1 1 2 2 2 2 2 2 2 2 2 2 3 3 3 3 3 3 3 4 4 3
1 1 1 1 1 1 1 1 0 0 0 0 0 0 0 0 0 0 1 1 0 0 1 1 1 1 1 1 1 1 2 2 2 2 2 2 2 2 3 3 3 3 3
1 1 1 0 0 0 0 0 -0 -0 -0 -1 -1 -1 -0 -0 -0 -0 -0 0 0 0 0 0 0 0 1 1 1 1 1 1 1 1 1 1 2 2 2 2 2 2 2
1 0 0 0 -0 -0 -0 -1 -1 -1 -1 -1 -1 -1 -1 -1 -1 -1 -1 -1 -0 -0 -0 -0 -0 0 0 0 1 1 0 0 0 0 0 1 1 1 1 1 1 1 1
0 -0 -0 -0 -1 -1 -1 -1 -1 -1 -2 -2 -2 -2 -2 -2 -2 -2 -2 -1 -1 -1 -1 -1 -1 -1 -0 -0 -0 -0 -0 -0 -0 -0 -0 -0 0 0 0 0 1 1 1
-0 -0 -1 -1 -1 -1 -2 -1 -2 -2 -2 -2 -2 -2 -2 -2 -2 -2 -2 -2 -2 -2 -2 -2 -2 -2 -2 -2 -2 -1 -1 -1 -1 -1 -1 -1 -1 -1 -1 -0 -0 -0 -0
-1 -1 -1 -1 -2 -2 -2 -2 -2 -2 -2 -2 -3 -3 -3 -3 -3 -2 -2 -2 -2 -2 -2 -3 -3 -3 -3 -3 -3 -2 -2 -2 -2 -2 -2 -2 -1 -1 -1 -1 -1 -1 -1
-1 -1 -1 -2 -2 -2 -3 -3 -3 -3 -3 -3 -3 -3 -3 -3 -3 -3 -3 -2 -2 -3 -3 -4 -4 -4 -4 -3 -3 -3 -3 -2 -2 -2 -2 -2 -2 -2 -2 -2 -2 -2 -2
-1 -1 -2 -2 -2 -3 -3 -3 -3 -4 -4 -4 -4 -3 -3 -3 -3 -3 -3 -3 -3 -4 -4 -4 -4 -4 -4 -4 -4 -4 -3 -3 -3 -3 -3 -3 -3 -3 -3 -3 -2 -2 -2
-1 -2 -2 -3 -3 -3 -3 -4 -4 -4 -4 -5 -5 -5 -4 -4 -4 -4 -4 -4 -4 -4 -5 -5 -5 -5 -5 -4 -4 -4 -4 -4 -4 -4 -3 -3 -3 -3 -3 -3 -3 -3 -3
-2 -2 -2 -3 -3 -3 -4 -4 -4 -5 -5 -5 -5 -5 -5 -5 -5 -5 -5 -5 -5 -5 -5 -5 -5 -5 -5 -5 -5 -5 -5 -4 -4 -4 -4 -4 -4 -4 -4 -4 -4 -4 -4
-2 -2 -3 -3 -3 -4 -4 -4 -5 -5 -5 -5 -5 -5 -5 -5 -6 -6 -6 -6 -6 -6 -6 -6 -6 -6 -6 -6 -6 -5 -5 -5 -5 -5 -5 -5 -4 -4 -4 -4 -4 -4 -4
-3 -3 -3 -4 -4 -4 -5 -5 -5 -5 -5 -5 -6 -6 -6 -6 -6 -6 -6 -6 -6 -6 -6 -6 -6 -6 -6 -6 -6 -6 -6 -5 -5 -5 -5 -5 -5 -5 -5 -5 -5 -5 -5
-3 -3 -4 -4 -4 -5 -5 -5 -5 -6 -6 -6 -6 -6 -6 -6 -6 -6 -6 -6 -6 -6 -6 -6 -6 -6 -6 -6 -6 -6 -6 -6 -6 -5 -5 -5 -5 -5 -5 -5 -5 -5 -5
-3 -4 -4 -4 -5 -5 -5 -6 -6 -6 -6 -6 -6 -6 -6 -6 -6 -7 -7 -7 -7 -7 -6 -6 -6 -6 -6 -6 -6 -6 -6 -6 -6 -6 -6 -5 -5 -5 -5 -5 -5 -5 -5
-4 -4 -5 -5 -5 -5 -6 -6 -6 -6 -6 -6 -7 -7 -7 -7 -7 -7 -7 -7 -7 -7 -7 -7 -7 -7 -7 -7 -6 -6 -6 -6 -6 -6 -6 -6 -6 -6 -6 -6 -6 -6 -6
Wind_Speed
6 6 5 5 5 4 3 3 2 2 3 3 4 4 3 4 5 5 5 6 7 7 7 8 9 7 7 7 8 8 8 7 9 6 4 4 7 8 8 10 12 13 14
7 6 6 6 6 5 5 4 3 2 2 3 3 3 3 3 3 4 5 6 7 7 7 7 8 7 8 7 7 9 8 8 8 8 5 4 6 8 8 7 7 10 11
6 6 6 6 6 6 5 5 4 3 3 2 2 2 3 3 3 4 5 5 6 6 7 8 8 8 8 7 7 8 7 7 6 7 6 4 4 5 6 6 6 6 9
6 6 7 7 6 6 6 5 5 4 3 2 2 2 2 2 3 4 4 5 5 6 6 7 7 8 8 8 7 8 7 7 7 6 5 5 4 4 5 6 6 6 7
6 6 6 6 6 5 5 6 6 5 5 4 3 3 2 2 2 3 3 5 5 6 6 6 7 8 9 9 8 7 7 8 7 8 7 6 6 5 6 5 7 5 6
6 6 6 6 7 6 5 5 5 5 5 5 4 3 3 3 5 5 4 5 5 5 6 6 6 7 9 10 12 12 12 11 10 9 9 9 10 8 6 6 6 6 6
5 5 5 6 6 6 6 6 6 5 5 5 5 4 4 5 6 6 6 4 4 5 5 5 6 6 8 8 10 11 12 14 14 11 11 11 10 9 9 9 9 8 7
5 5 6 6 6 6 6 6 6 5 4 4 5 5 5 6 7 7 7 4 4 5 5 5 6 7 8 8 8 9 9 9 11 10 11 11 10 9 11 11 10 7 3
5 5 6 6 6 6 6 6 6 5 5 5 5 5 5 6 8 8 7 4 4 5 5 6 6 6 9 9 7 8 9 8 9 10 11 11 11 11 9 6 6 6 5
4 5 5 5 5 6 6 6 5 5 5 5 5 5 5 5 9 9 8 4 5 6 6 6 8 9 10 9 7 7 9 8 6 7 8 8 8 9 11 10 9 8 4
3 3 4 4 4 5 5 5 5 5 5 5 5 5 5 6 8 10 10 5 5 6 6 6 7 11 11 10 8 6 8 8 6 5 5 5 5 6 7 7 7 7 6
3 3 4 4 4 5 5 5 5 5 5 5 5 5 4 6 7 9 11 9 9 6 6 6 7 12 11 9 7 7 8 6 4 4 4 5 5 5 4 4 4 4 4
2 3 4 4 4 4 5 5 5 5 5 5 5 5 6 5 6 10 11 11 11 7 6 10 11 11 10 7 7 8 6 4 3 4 5 5 4 3 2 1 1 0 1
2 3 3 3 4 4 4 3 4 4 5 5 5 6 6 6 6 6 6 7 9 8 7 8 10 9 7 7 6 5 4 4 4 4 4 3 3 1 1 1 1 2 1
2 2 3 3 3 4 4 3 3 3 4 5 4 5 6 6 8 12 10 7 7 7 7 5 4 5 5 5 5 4 3 3 3 3 3 3 3 2 2 1 1 2 2
2 2 2 2 3 3 4 5 5 4 6 7 7 7 6 8 12 13 13 13 11 10 6 4 5 5 5 5 5 5 4 4 3 3 3 2 3 2 2 1 1 2 3
2 2 2 2 2 3 3 4 5 6 7 7 8 9 10 11 12 12 13 12 10 8 4 4 4 5 5 5 5 5 5 5 4 3 3 3 2 2 1 2 2 2 2
2 2 2 2 2 2 3 4 4 5 6 6 7 9 11 11 12 12 12 10 7 6 4 4 5 5 6 6 5 4 4 4 4 3 3 2 2 2 2 2 2 2 2
2 2 2 2 2 2 3 3 4 5 5 6 6 7 10 11 11 11 10 5 5 6 5 5 5 5 5 5 5 4 4 4 4 4 3 3 2 2 2 2 2 3 2
2 3 2 2 2 2 2 3 4 4 5 5 5 6 6 6 6 7 6 5 5 5 5 6 6 6 5 5 5 4 4 4 3 3 3 2 2 2 1 2 2 2 2
2 2 3 2 2 2 2 3 3 4 4 5 5 6 8 5 5 6 6 5 5 6 6 6 6 5 5 4 4 4 4 4 4 3 3 2 2 2 1 1 2 2 2
2 2 2 2 2 2 3 3 3 4 5 5 5 6 9 5 4 5 6 6 6 5 5 5 5 5 4 4 4 4 4 4 4 3 3 2 2 2 1 1 2 2 2
2 2 2 2 2 4 4 3 3 4 4 4 5 5 5 5 5 5 6 6 6 6 5 5 5 5 5 5 4 4 4 4 4 3 3 3 2 2 1 1 2 2 3
2 2 2 2 2 2 3 3 3 3 4 4 4 4 5 5 5 6 5 5 6 6 6 5 4 5 6 6 6 6 5 5 5 3 3 3 3 2 2 2 2 3 4
2 2 2 3 3 3 3 3 3 3 4 4 4 4 5 5 5 5 5 5 6 6 6 6 4 5 6 7 7 7 8 7 6 4 3 2 3 3 3 3 2 3 3
3 3 2 2 2 3 3 3 3 3 4 4 4 4 4 4 4 4 5 5 5 5 6 5 5 6 7 7 7 8 9 9 7 5 3 1 2 2 2 2 3 4 4
Wind_Direction
6 4 4 1 356 356 350 334 309 272 253 245 233 222 228 232 232 230 231 231 232 236 237 236 238 237 241 238 233 231 234 237 252 257 243 230 212 213 217 216 218 215 218
3 3 2 -0 1 357 349 335 324 302 277 259 251 233 243 247 244 240 240 240 238 238 240 243 245 244 242 244 240 237 237 235 243 253 257 243 236 218 215 219 219 220 219
0 2 1 2 1 359 353 342 340 334 314 292 273 248 256 257 251 251 248 249 247 245 242 241 244 243 244 246 246 244 243 246 244 248 253 252 255 227 218 229 226 227 226
2 7 2 354 353 352 351 350 351 350 347 337 323 292 272 281 267 260 258 260 260 259 254 249 246 243 247 246 247 247 248 248 245 243 248 249 254 236 214 222 232 227 232
1 3 357 353 350 353 357 1 4 6 9 5 358 357 346 327 310 295 281 274 266 266 262 258 257 256 256 254 253 250 248 248 249 245 244 246 244 233 223 219 235 237 239
0 355 352 352 351 355 358 1 5 6 6 4 359 355 354 343 346 340 316 282 275 270 272 274 274 265 266 266 259 254 248 244 244 248 248 243 240 235 225 224 230 237 245
353 351 353 353 353 353 359 4 1 356 356 356 351 350 346 344 350 346 336 314 289 282 278 277 281 280 274 267 264 261 257 253 246 243 249 250 243 233 221 222 224 230 242
350 353 356 356 353 353 0 1 353 345 349 345 344 345 345 347 353 349 344 328 316 310 300 288 286 284 279 275 271 265 260 259 255 248 249 252 247 234 225 221 224 231 260
348 351 354 355 352 354 355 351 346 344 346 342 343 346 347 347 356 355 348 328 323 314 312 310 305 295 296 295 279 271 270 268 265 255 256 260 256 243 234 222 210 213 242
341 345 349 352 351 350 345 341 339 339 338 335 337 343 345 345 352 354 348 332 326 321 317 313 313 312 308 306 286 274 269 270 270 265 262 263 253 239 230 219 208 213 225
331 340 344 344 343 343 341 343 340 341 341 341 339 342 345 346 345 348 346 338 325 318 313 312 312 319 313 307 295 278 279 284 270 264 266 263 257 245 232 224 217 212 213
333 336 337 336 339 343 340 341 343 346 346 346 345 342 343 343 343 341 341 336 329 313 308 308 310 318 315 309 300 299 301 296 280 275 272 269 264 253 242 234 234 234 221
327 324 326 331 335 337 339 341 343 345 347 345 343 337 335 338 337 337 333 329 326 316 306 312 317 321 319 310 311 315 309 291 278 274 272 276 277 261 244 234 244 79 38
314 316 322 329 333 334 334 337 339 339 340 339 337 332 327 329 333 331 325 319 321 317 314 317 320 321 323 320 317 313 304 292 285 277 280 289 297 277 243 211 194 151 122
295 304 317 325 327 327 328 328 327 325 331 326 322 322 323 321 326 332 329 320 318 315 320 320 326 328 329 327 323 314 309 303 298 301 295 302 300 278 269 248 193 181 187
281 299 309 317 321 324 328 331 331 322 330 331 328 325 320 318 324 330 333 330 329 331 331 331 329 326 321 319 316 316 313 306 301 302 297 285 283 274 276 285 213 201 192
254 277 295 303 311 316 323 327 328 330 328 326 330 333 332 329 332 334 335 334 334 339 335 325 321 320 317 313 311 310 309 310 305 291 282 280 279 273 251 236 219 205 193
241 251 269 282 296 304 311 315 317 321 326 329 330 331 336 338 337 338 340 342 339 342 332 323 318 316 314 308 304 305 307 312 310 301 295 287 273 262 249 233 214 203 192
232 247 265 282 292 296 305 310 312 314 316 319 325 331 336 337 339 341 347 347 334 330 324 320 315 312 311 309 306 304 304 306 310 311 309 308 291 263 246 235 218 202 185
230 242 258 280 289 293 302 307 310 311 313 314 318 323 332 339 340 340 342 337 331 325 321 314 311 309 308 308 307 307 309 309 307 304 306 304 298 278 249 223 208 194 193
234 241 246 265 264 271 285 290 297 301 303 305 309 317 329 334 329 328 330 328 325 319 316 312 309 306 303 302 302 302 304 304 301 298 301 299 293 284 266 220 200 190 178
227 236 238 247 260 266 282 284 290 295 301 305 312 317 323 330 328 325 325 322 318 313 313 311 309 307 302 297 297 297 292 292 294 296 299 293 284 277 265 219 189 177 168
218 233 245 254 259 268 277 279 282 288 295 300 308 315 320 322 322 322 322 322 321 319 322 322 317 315 316 311 306 291 279 277 279 280 285 280 265 251 235 208 183 168 165
213 228 242 254 258 257 266 275 280 287 293 299 305 310 313 315 317 318 322 322 323 324 328 327 321 320 323 324 320 313 300 295 293 283 264 258 250 245 231 207 190 175 165
211 224 238 247 253 258 265 272 278 287 294 299 303 308 312 314 315 318 322 325 325 328 330 329 323 322 323 323 323 322 323 322 317 311 286 253 239 233 223 202 182 166 160
214 225 235 241 247 254 261 268 274 282 286 293 298 302 305 308 310 313 320 326 329 329 329 330 326 325 323 323 325 331 335 336 334 328 318 261 237 228 205 187 172 170 162
Height
1437 1436 1434 1434 1433 1433 1433 1433 1433 1434 1436 1437 1439 1441 1442 1444 1446 1448 1449 1451 1452 1453 1455 1457 1458 1459 1460 1462 1463 1464 1466 1467 1465 1464 1466 1467 1468 1468 1470 1471 1472 1473 1474
1437 1435 1434 1433 1432 1431 1430 1430 1430 1430 1431 1432 1434 1435 1437 1439 1440 1442 1443 1445 1446 1447 1448 1450 1450 1452 1453 1454 1455 1456 1456 1458 1458 1457 1457 1458 1459 1461 1462 1462 1464 1465 1465
1437 1435 1433 1432 1431 1430 1429 1428 1427 1427 1427 1428 1429 1431 1432 1434 1435 1436 1438 1439 1440 1440 1441 1442 1443 1444 1445 1446 1447 1447 1448 1449 1450 1450 1449 1450 1451 1453 1453 1454 1455 1456 1457
1437 1435 1433 1432 1430 1429 1427 1426 1425 1424 1424 1425 1426 1427 1429 1430 1431 1431 1432 1433 1434 1434 1435 1435 1435 1436 1437 1438 1439 1439 1440 1441 1442 1442 1441 1442 1443 1444 1445 1445 1446 1447 1448
1436 1434 1433 1431 1429 1428 1426 1424 1423 1422 1422 1422 1423 1424 1424 1425 1425 1426 1427 1427 1428 1428 1428 1428 1428 1428 1429 1430 1431 1431 1433 1433 1433 1433 1433 1433 1434 1435 1435 1436 1437 1438 1439
1436 1434 1432 1430 1428 1427 1425 1424 1422 1421 1421 1421 1421 1421 1421 1421 1421 1421 1422 1421 1421 1422 1421 1421 1421 1422 1422 1422 1423 1424 1425 1425 1424 1425 1424 1424 1424 1426 1426 1428 1429 1429 1429
1436 1434 1432 1430 1427 1425 1424 1422 1421 1420 1419 1418 1418 1418 1417 1417 1417 1417 1417 1416 1416 1416 1415 1415 1414 1415 1415 1414 1414 1415 1416 1416 1417 1417 1416 1415 1415 1416 1418 1418 1419 1419 1420
1436 1434 1431 1429 1427 1425 1423 1422 1420 1419 1417 1417 1416 1415 1414 1414 1413 1413 1412 1412 1411 1410 1410 1409 1408 1407 1407 1407 1406 1406 1406 1406 1407 1408 1408 1407 1408 1408 1409 1409 1410 1412 1413
1435 1433 1431 1429 1427 1425 1423 1421 1420 1418 1416 1414 1413 1412 1412 1411 1410 1409 1408 1407 1406 1405 1404 1403 1402 1400 1400 1400 1399 1398 1397 1397 1398 1399 1399 1399 1399 1400 1401 1401 1401 1402 1402
1434 1432 1431 1429 1426 1424 1422 1421 1419 1417 1415 1413 1411 1410 1409 1408 1407 1406 1405 1403 1402 1401 1399 1398 1397 1395 1394 1393 1392 1391 1390 1389 1390 1390 1390 1390 1390 1391 1392 1392 1392 1393 1394
1433 1432 1429 1427 1425 1423 1421 1420 1417 1415 1413 1411 1409 1408 1407 1406 1404 1403 1402 1400 1399 1397 1395 1393 1392 1390 1388 1387 1387 1385 1384 1384 1383 1383 1382 1382 1382 1382 1383 1383 1384 1385 1385
1432 1430 1428 1426 1424 1422 1420 1417 1415 1413 1411 1409 1407 1405 1404 1403 1401 1400 1399 1397 1396 1394 1391 1389 1387 1386 1384 1382 1381 1380 1380 1379 1378 1376 1376 1375 1375 1374 1375 1376 1376 1377 1379
1429 1428 1426 1424 1422 1420 1418 1415 1413 1411 1409 1407 1405 1403 1401 1400 1398 1397 1395 1394 1392 1390 1388 1386 1384 1382 1379 1377 1376 1375 1375 1373 1372 1371 1370 1369 1369 1369 1369 1370 1370 1371 1372
1426 1425 1423 1422 1420 1418 1416 1414 1412 1410 1407 1405 1403 1401 1399 1397 1395 1393 1392 1390 1388 1386 1384 1381 1380 1378 1376 1373 1372 1370 1369 1368 1367 1366 1365 1365 1364 1364 1364 1364 1365 1365 1366
1423 1422 1421 1419 1418 1416 1414 1413 1410 1409 1407 1405 1402 1400 1397 1394 1393 1392 1389 1386 1384 1382 1380 1378 1375 1373 1371 1369 1367 1366 1365 1364 1363 1362 1361 1361 1360 1359 1359 1359 1360 1361 1361
1420 1419 1418 1416 1415 1413 1411 1410 1408 1407 1405 1402 1400 1398 1395 1393 1390 1389 1386 1384 1381 1379 1377 1374 1372 1370 1368 1366 1364 1362 1361 1360 1359 1358 1358 1357 1356 1355 1355 1355 1356 1357 1357
1417 1416 1415 1414 1412 1410 1409 1407 1405 1403 1402 1399 1397 1394 1392 1389 1387 1385 1383 1380 1378 1376 1373 1371 1369 1367 1365 1363 1362 1360 1358 1357 1356 1355 1354 1354 1353 1352 1352 1352 1352 1353 1354
1414 1413 1412 1411 1409 1408 1406 1404 1402 1400 1397 1395 1394 1391 1389 1386 1384 1382 1379 1377 1374 1372 1370 1368 1366 1364 1362 1361 1359 1357 1355 1354 1353 1352 1351 1350 1350 1350 1349 1349 1349 1350 1350
1410 1409 1408 1407 1406 1405 1403 1402 1400 1398 1396 1393 1390 1388 1386 1383 1381 1379 1376 1374 1371 1368 1367 1365 1363 1361 1359 1358 1356 1354 1353 1351 1350 1349 1348 1348 1347 1347 1347 1346 1346 1347 1348
1406 1406 1405 1404 1403 1401 1400 1399 1397 1395 1393 1391 1388 1386 1383 1380 1377 1375 1373 1371 1368 1366 1364 1362 1360 1358 1356 1354 1353 1351 1350 1349 1347 1347 1346 1346 1345 1345 1344 1344 1344 1345 1346
1403 1402 1401 1400 1399 1398 1397 1395 1394 1392 1390 1388 1386 1384 1381 1378 1376 1373 1371 1368 1366 1363 1361 1358 1356 1354 1352 1351 1350 1348 1347 1346 1345 1344 1344 1343 1343 1343 1343 1343 1343 1344 1344
1399 1398 1397 1396 1396 1395 1394 1392 1391 1389 1387 1385 1383 1381 1379 1376 1373 1371 1368 1366 1363 1360 1358 1355 1352 1350 1349 1348 1347 1345 1344 1343 1343 1342 1341 1341 1341 1341 1341 1341 1342 1342 1343
1394 1394 1393 1393 1392 1391 1390 1389 1387 1386 1384 1382 1380 1377 1375 1373 1370 1368 1365 1363 1360 1357 1354 1351 1349 1347 1346 1345 1344 1343 1342 1341 1341 1340 1339 1339 1339 1339 1340 1340 1341 1341 1342
1390 1390 1389 1389 1388 1387 1386 1385 1384 1382 1380 1379 1377 1374 1372 1370 1367 1365 1363 1360 1357 1354 1351 1349 1347 1345 1344 1343 1342 1341 1340 1339 1339 1338 1338 1338 1337 1338 1338 1339 1339 1340 1341
1386 1386 1385 1385 1384 1383 1382 1381 1380 1379 1377 1375 1373 1371 1369 1367 1365 1362 1360 1357 1355 1352 1349 1347 1345 1343 1342 1341 1339 1339 1338 1337 1337 1337 1336 1336 1336 1336 1337 1337 1338 1339 1340
1382 1382 1381 1381 1380 1379 1378 1377 1376 1375 1374 1372 1370 1368 1366 1364 1362 1359 1357 1355 1352 1350 1348 1345 1343 1342 1340 1339 1338 1337 1336 1336 1335 1335 1335 1335 1335 1335 1335 1336 1337 1338 1339